Location: Burbank
(38.7788°N, 114.0429°W)
Time: 13:31:27
(UTC+00:00)

Vanguard 2 Rocket - Pass Details

Date: 18 May 2026
Orbit: 553 x 3286 km, 32.9° (Epoch: 6 June)

Event Time Altitude Azimuth Distance (km) Brightness Sun altitude
Rises 14:15:42 0° 173° (S) 3,993 10.2 20.3°
Reaches altitude 10° 14:22:12 10° 133° (SE) 3,780 10.7 21.6°
Maximum altitude 14:23:27 10° 126° (SE) 3,898 10.9 21.8°
Drops below altitude 10° 14:24:47 10° 119° (ESE) 4,068 11.2 22.1°
Sets 14:34:17 0° 85° (E) 6,024 12.5 23.9°
